CW5455 Weather Reports


time (UTC)temp
F
wind
direction
speed
knots
gust
knots
rain 1hr
in
rain 24hr
in
rain mn
in
humidity
%
barometer
mb
20260507023132 48 17 0.0 1.7 0.00 0.20 0.00 90 1012.3
20260507022127 48 17 0.0 1.7 0.00 0.20 0.00 90 1012.2
20260507021622 48 17 0.0 1.7 0.00 0.20 0.00 90 1012.2
20260507021123 48 17 0.0 1.7 0.00 0.20 0.00 90 1012.3
20260507020620 48 17 0.0 2.6 0.00 0.20 0.00 90 1012.1
20260507020124 48 17 0.9 2.6 0.00 0.20 0.00 90 1012.2
20260507015617 48 17 0.0 0.9 0.00 0.20 0.00 90 1012.1
20260507015117 48 17 0.0 1.7 0.00 0.20 0.00 90 1012.0
20260507014612 48 17 0.0 2.6 0.00 0.20 0.00 90 1012.0
20260507014108 48 17 0.9 2.6 0.00 0.20 0.00 90 1012.0
20260507013609 47 232 1.7 4.3 0.00 0.20 0.00 90 1012.0
20260507013108 47 232 1.7 4.3 0.00 0.20 0.00 90 1012.0
20260507012103 47 202 1.7 3.5 0.00 0.20 0.00 91 1012.1
20260507011605 47 220 0.0 0.0 0.00 0.20 0.00 91 1012.0
20260507010610 48 220 0.0 0.9 0.00 0.20 0.00 90 1011.9
20260507010108 48 220 0.0 3.5 0.00 0.20 0.00 91 1011.8
20260507005553 48 220 0.9 3.5 0.00 0.20 0.00 91 1011.9
20260507005050 48 223 1.7 3.5 0.00 0.20 0.00 92 1011.9
20260507004551 48 223 0.9 4.3 0.00 0.20 0.00 92 1011.8
20260507004049 47 221 2.6 4.3 0.00 0.20 0.00 92 1011.9
20260507003548 47 212 0.9 3.5 0.00 0.20 0.00 93 1011.8
20260507002547 47 186 1.7 2.6 0.00 0.20 0.00 93 1011.7
20260507002045 47 212 0.9 1.7 0.00 0.20 0.00 93 1011.7
20260507001043 47 66 0.0 1.7 0.00 0.20 0.00 93 1011.7
20260507000539 47 66 0.0 1.7 0.00 0.20 0.00 93 1011.6
20260506235534 47 66 0.9 3.5 0.00 0.20 0.00 93 1011.5
20260506235036 47 61 1.7 2.6 0.00 0.20 0.00 93 1011.5
20260506234524 47 61 0.9 2.6 0.00 0.20 0.00 93 1011.5
20260506234022 46 59 0.9 2.6 0.00 0.20 0.00 93 1011.4
20260506233521 46 61 1.7 2.6 0.00 0.20 0.00 93 1011.5
20260506233020 46 61 0.9 2.6 0.00 0.20 0.00 93 1011.5
20260506232518 46 61 0.0 2.6 0.00 0.20 0.00 93 1011.5
20260506232018 46 61 0.9 2.6 0.00 0.20 0.00 92 1011.4
20260506231518 45 61 0.0 2.6 0.00 0.20 0.00 92 1011.4
20260506231015 45 61 0.9 3.5 0.00 0.20 0.00 92 1011.5
20260506230512 46 61 1.7 3.5 0.00 0.20 0.00 92 1011.4
20260506230044 46 59 0.0 1.7 0.00 0.20 0.00 92 1011.4
20260506225452 46 59 0.9 3.5 0.00 0.20 0.00 92 1011.2
20260506224950 46 59 1.7 3.5 0.00 0.20 0.00 92 1011.1
20260506224449 46 54 0.9 2.6 0.00 0.20 0.00 92 1011.1
20260506223949 46 54 1.7 2.6 0.00 0.20 0.00 92 1011.2
20260506223444 46 54 1.7 3.5 0.00 0.20 0.00 92 1011.1
20260506222943 46 54 2.6 3.5 0.00 0.20 0.00 92 1011.1
20260506221434 46 70 0.9 1.7 0.00 0.20 0.00 92 1011.1
20260506220937 46 70 0.9 1.7 0.00 0.20 0.00 92 1011.2
20260506220434 46 70 0.9 2.6 0.00 0.20 0.00 92 1011.1
20260506215425 47 70 1.7 3.5 0.00 0.20 0.20 92 1011.0
20260506214925 47 73 1.7 3.5 0.00 0.20 0.20 92 1011.0
20260506214422 47 67 1.7 3.5 0.00 0.20 0.20 92 1011.0
20260506213920 47 74 0.9 2.6 0.00 0.20 0.20 92 1011.0
20260506213417 47 74 0.9 3.5 0.00 0.20 0.20 92 1011.0
20260506212915 47 74 2.6 3.5 0.00 0.20 0.20 92 1011.0
20260506212414 47 53 2.6 3.5 0.00 0.20 0.20 92 1011.0
20260506211414 47 61 0.9 3.5 0.00 0.20 0.20 92 1010.9
20260506210919 47 61 1.7 3.5 0.00 0.20 0.20 92 1011.0
20260506210407 47 61 1.7 3.5 0.00 0.20 0.20 92 1010.9
20260506205904 47 58 1.7 3.5 0.00 0.20 0.20 92 1011.0
20260506205405 47 58 1.7 3.5 0.00 0.20 0.20 91 1011.1
20260506204907 47 62 1.7 3.5 0.00 0.20 0.20 91 1011.1
20260506204357 47 61 1.7 2.6 0.00 0.20 0.20 91 1011.2
20260506203856 47 61 1.7 3.5 0.00 0.20 0.20 91 1011.0
20260506202836 47 51 1.7 2.6 0.00 0.20 0.20 91 1011.0
20260506202333 47 44 0.9 3.5 0.00 0.20 0.20 91 1010.9
20260506201828 47 42 2.6 3.5 0.00 0.20 0.20 91 1010.9
20260506201325 47 63 1.7 2.6 0.00 0.20 0.20 90 1010.9
20260506200812 47 67 1.7 2.6 0.00 0.20 0.20 90 1010.9
20260506200314 47 67 1.7 2.6 0.00 0.20 0.20 90 1010.9
20260506195812 47 67 0.0 3.5 0.00 0.20 0.20 90 1010.8
20260506195306 48 67 1.7 3.5 0.00 0.20 0.20 90 1010.8
20260506194807 48 67 1.7 2.6 0.00 0.20 0.20 89 1010.9
20260506194305 48 67 0.9 2.6 0.00 0.20 0.20 89 1010.7
20260506193807 48 67 1.7 2.6 0.00 0.20 0.20 89 1010.7
20260506193256 49 241 0.0 1.7 0.00 0.20 0.20 89 1010.6
20260506192749 49 240 0.0 0.0 0.00 0.20 0.20 88 1010.6
20260506192243 49 240 0.0 0.0 0.00 0.20 0.20 88 1010.5
20260506191737 50 240 0.0 0.0 0.00 0.20 0.20 88 1010.3
20260506191234 50 240 0.0 0.0 0.00 0.20 0.20 87 1010.3
20260506190733 50 240 0.0 0.9 0.00 0.20 0.20 87 1010.4
20260506190232 50 240 0.0 1.7 0.00 0.20 0.20 86 1010.3
20260506185732 50 240 0.9 1.7 0.00 0.20 0.20 85 1010.3
20260506184732 51 238 0.9 4.3 0.00 0.20 0.20 84 1010.0
20260506184231 51 238 1.7 4.3 0.00 0.20 0.20 84 1009.9
20260506183732 51 241 1.7 2.6 0.00 0.20 0.20 84 1009.9
20260506183236 51 223 1.7 2.6 0.00 0.20 0.20 83 1009.8
20260506182736 52 239 1.7 3.5 0.00 0.20 0.20 82 1009.8
20260506182232 52 250 1.7 3.5 0.00 0.20 0.20 82 1009.8
20260506181735 52 213 1.7 2.6 0.00 0.21 0.20 81 1009.7
20260506181229 52 241 0.9 2.6 0.00 0.21 0.20 82 1009.7
20260506180726 52 241 1.7 3.5 0.00 0.22 0.20 81 1009.7
20260506180246 53 246 1.7 3.5 0.00 0.23 0.20 81 1009.6
20260506173705 52 196 2.6 7.0 0.00 0.24 0.20 83 1009.6
20260506173205 52 204 4.3 7.0 0.00 0.24 0.20 83 1009.5
20260506172702 52 213 3.5 5.2 0.00 0.24 0.20 83 1009.5
20260506172204 52 215 2.6 5.2 0.00 0.24 0.20 83 1009.5
20260506171703 52 161 3.5 7.0 0.00 0.24 0.20 83 1009.5
20260506171203 52 196 3.5 7.0 0.00 0.24 0.20 83 1009.3
20260506170659 52 196 2.6 3.5 0.00 0.24 0.20 85 1009.3
20260506165652 52 207 0.0 5.2 0.00 0.24 0.20 84 1009.1
20260506164149 52 207 4.3 7.0 0.00 0.24 0.20 84 1009.0
20260506163144 52 182 1.7 6.1 0.00 0.24 0.20 86 1009.2
20260506162643 52 217 4.3 7.0 0.00 0.24 0.20 85 1009.2
20260506162155 52 196 2.6 7.0 0.00 0.24 0.20 86 1009.1
20260506161141 52 215 2.6 7.0 0.00 0.24 0.20 86 1008.9
20260506160641 51 202 2.6 7.8 0.00 0.24 0.20 86 1009.0
20260506160147 51 190 3.5 7.8 0.00 0.24 0.20 86 1009.2
20260506155635 51 207 2.6 6.1 0.00 0.24 0.20 87 1009.2
20260506155137 52 205 1.7 4.3 0.00 0.24 0.20 88 1009.2
20260506154634 51 217 2.6 4.3 0.00 0.24 0.20 87 1009.1
20260506154131 51 217 1.7 4.3 0.00 0.24 0.20 87 1009.1
20260506153624 51 216 1.7 3.5 0.00 0.24 0.20 87 1009.1
20260506153116 51 215 1.7 7.0 0.00 0.24 0.20 87 1009.0
20260506152614 51 215 2.6 7.0 0.00 0.24 0.20 87 1008.9
20260506151612 51 238 0.9 4.3 0.01 0.24 0.20 88 1008.9
20260506151106 51 267 1.7 4.3 0.01 0.24 0.20 88 1009.0
20260506150603 51 250 0.9 2.6 0.01 0.24 0.20 88 1009.2
20260506150118 51 245 0.9 2.6 0.01 0.24 0.20 89 1009.1
20260506145605 51 221 0.9 2.6 0.01 0.23 0.20 88 1009.3
20260506145103 51 235 0.9 3.5 0.02 0.23 0.20 89 1009.3
20260506144603 51 247 1.7 3.5 0.02 0.23 0.20 89 1009.2
20260506144100 51 13 1.7 2.6 0.02 0.23 0.20 89 1009.2
20260506143617 51 28 1.7 2.6 0.02 0.23 0.20 89 1009.2
20260506143053 51 259 0.9 5.2 0.03 0.23 0.20 89 1009.2
20260506142550 50 255 0.9 5.2 0.06 0.23 0.20 89 1009.3
20260506141547 50 259 0.0 2.6 0.06 0.23 0.19 89 1009.3
20260506141045 50 259 0.0 2.6 0.07 0.23 0.19 89 1009.3
20260506140537 50 259 0.9 3.5 0.08 0.23 0.19 89 1009.3
20260506135534 50 245 2.6 6.1 0.09 0.14 0.19 90 1009.2
20260506135031 49 246 2.6 7.0 0.09 0.14 0.18 90 1009.1
20260506134533 49 215 2.6 8.7 0.11 0.14 0.18 90 1009.1
20260506134036 49 261 5.2 8.7 0.13 0.14 0.17 90 1008.9
20260506133531 49 245 5.2 10.4 0.14 0.14 0.17 90 1008.8
20260506133031 49 225 3.5 10.4 0.14 0.14 0.16 89 1009.0
20260506132533 49 241 3.5 8.7 0.13 0.14 0.14 89 1009.1
20260506132031 49 238 3.5 10.4 0.13 0.14 0.13 89 1009.1
20260506131031 49 230 4.3 8.7 0.12 0.14 0.12 88 1008.9
20260506130110 50 249 3.5 10.4 0.10 0.14 0.10 87 1008.6
20260506125524 50 242 3.5 12.2 0.10 0.04 0.09 86 1008.6
20260506125021 51 236 3.5 17.4 0.09 0.04 0.09 85 1008.4
20260506124521 52 227 7.8 19.1 0.07 0.04 0.06 83 1008.3
20260506124017 53 197 13.0 19.1 0.04 0.04 0.04 83 1008.0
20260506123515 54 197 5.2 10.4 0.03 0.04 0.02 84 1007.7
20260506123014 55 215 3.5 10.4 0.02 0.04 0.02 82 1007.3
20260506122514 56 194 5.2 10.4 0.01 0.04 0.01 80 1007.1
20260506122014 57 186 6.1 9.6 0.00 0.04 0.00 79 1006.8
20260506121518 57 217 3.5 13.0 0.00 0.04 0.00 78 1006.6
20260506120512 58 205 2.6 6.1 0.00 0.04 0.00 73 1006.3
20260506120048 58 200 4.3 6.1 0.00 0.04 0.00 72 1006.3
20260506115510 58 215 1.7 3.5 0.00 0.04 0.00 72 1006.2
20260506115011 58 224 1.7 3.5 0.00 0.04 0.00 72 1006.2
20260506114500 58 227 0.9 3.5 0.00 0.04 0.00 72 1006.2
20260506113957 58 223 1.7 3.5 0.00 0.04 0.00 72 1006.2
20260506113457 58 236 1.7 3.5 0.00 0.04 0.00 72 1006.2
20260506112954 58 211 1.7 3.5 0.00 0.04 0.00 72 1006.2
20260506112457 58 211 1.7 4.3 0.00 0.04 0.00 72 1006.1
20260506111957 58 182 2.6 4.3 0.00 0.04 0.00 73 1006.1
20260506105942 58 227 1.7 4.3 0.00 0.04 0.00 72 1006.2
20260506105441 58 232 1.7 4.3 0.00 0.04 0.00 72 1006.2
20260506103931 58 243 1.7 4.3 0.00 0.04 0.00 71 1006.1
20260506103431 58 226 1.7 3.5 0.00 0.04 0.00 71 1006.2
20260506102933 59 265 1.7 5.2 0.00 0.04 0.00 72 1006.2
20260506102431 59 217 2.6 5.2 0.00 0.04 0.00 72 1006.2
20260506101934 58 212 3.5 5.2 0.00 0.04 0.00 72 1006.2
20260506101431 58 200 1.7 3.5 0.00 0.04 0.00 74 1006.2
20260506100934 58 205 2.6 4.3 0.00 0.04 0.00 73 1006.3
20260506100432 58 190 2.6 5.2 0.00 0.04 0.00 73 1006.4
20260506095931 58 216 2.6 6.1 0.00 0.04 0.00 73 1006.3
20260506095432 58 219 3.5 6.1 0.00 0.04 0.00 73 1006.3
20260506094431 58 200 4.3 7.0 0.00 0.04 0.00 74 1006.2
20260506093933 59 186 2.6 7.0 0.00 0.04 0.00 73 1006.3
20260506093433 59 177 3.5 7.0 0.00 0.04 0.00 73 1006.3
20260506092932 59 225 3.5 6.1 0.00 0.04 0.00 74 1006.3
20260506092431 59 197 4.3 6.1 0.00 0.04 0.00 76 1006.2
20260506091932 58 196 3.5 6.1 0.00 0.04 0.00 75 1006.3
20260506091433 58 5 1.7 4.3 0.00 0.04 0.00 78 1006.2
20260506090932 57 190 1.7 7.0 0.00 0.04 0.00 78 1006.3
20260506090434 56 198 2.6 7.0 0.00 0.04 0.00 78 1006.3
20260506085425 56 200 3.5 6.1 0.00 0.04 0.00 79 1006.4
20260506084923 56 209 2.6 4.3 0.00 0.04 0.00 80 1006.2
20260506083920 56 236 2.6 5.2 0.00 0.04 0.00 79 1006.3
20260506082912 55 180 1.7 3.5 0.00 0.04 0.00 83 1006.4
20260506082409 55 184 2.6 3.5 0.00 0.04 0.00 83 1006.2
20260506081908 55 199 0.9 3.5 0.00 0.04 0.00 83 1006.2
20260506081408 55 176 2.6 4.3 0.00 0.04 0.00 84 1006.3
20260506080903 55 147 1.7 4.3 0.00 0.04 0.00 84 1006.2
20260506080404 54 209 1.7 3.5 0.00 0.04 0.00 84 1006.2
20260506072839 53 173 1.7 3.5 0.00 0.04 0.00 84 1006.4
20260506072336 53 171 1.7 3.5 0.00 0.04 0.00 83 1006.5
20260506071834 53 171 0.9 3.5 0.00 0.04 0.00 83 1006.4
20260506071333 53 171 2.6 3.5 0.00 0.04 0.00 83 1006.5
20260506070838 53 169 1.7 1.7 0.00 0.04 0.00 83 1006.4
20260506070333 53 69 0.0 0.0 0.00 0.04 0.00 83 1006.5
20260506062305 52 69 0.0 0.0 0.00 0.04 0.00 84 1006.5
20260506061303 52 69 0.0 0.0 0.00 0.04 0.00 84 1006.5
20260506051238 49 69 0.9 1.7 0.00 0.04 0.00 89 1006.5
20260506044729 49 69 0.9 2.6 0.00 0.04 0.00 88 1006.5
20260506044227 49 69 1.7 2.6 0.00 0.04 0.00 88 1006.5
20260506043726 49 69 0.0 2.6 0.00 0.04 0.00 88 1006.5
20260506043223 49 69 0.9 2.6 0.00 0.04 0.00 88 1006.6
20260506042722 49 69 1.7 3.5 0.00 0.04 0.00 88 1006.6
20260506042220 49 69 1.7 3.5 0.00 0.04 0.00 88 1006.6
20260506041716 49 51 1.7 3.5 0.00 0.04 0.00 88 1006.5
20260506041214 49 51 1.7 3.5 0.00 0.04 0.00 88 1006.6
20260506040711 49 51 1.7 4.3 0.00 0.04 0.00 89 1006.7
20260506040212 49 48 2.6 4.3 0.00 0.04 0.00 89 1006.8
20260506035709 48 48 3.5 4.3 0.00 0.04 0.00 90 1006.7
20260506035209 48 69 1.7 4.3 0.00 0.04 0.00 90 1006.9
20260506034208 48 56 2.6 3.5 0.00 0.04 0.00 90 1007.1
20260506033206 48 58 1.7 5.2 0.00 0.04 0.00 90 1007.3
20260506032704 48 57 2.6 5.2 0.00 0.04 0.00 90 1007.2
20260506032206 47 51 0.0 2.6 0.00 0.04 0.00 90 1007.2
20260506031704 47 51 0.0 0.0 0.00 0.04 0.00 89 1007.4
20260506031207 48 51 0.0 0.0 0.00 0.04 0.00 89 1007.4
20260506030155 48 51 0.0 1.7 0.00 0.04 0.00 89 1007.6
20260506025651 48 51 0.0 1.7 0.00 0.04 0.00 89 1007.7
20260506025149 49 51 0.0 2.6 0.00 0.04 0.00 89 1007.6
20260506024642 49 51 1.7 2.6 0.00 0.04 0.00 89 1007.6
20260506024143 49 50 0.0 1.7 0.00 0.04 0.00 89 1007.6
20260506023636 49 50 0.0 1.7 0.00 0.04 0.00 89 1007.7